{"data":{"norad_id":63666,"intl_designator":"2025-085C","name":"STARLINK-11664 [DTC]","alt_names":[],"object_type":"PAYLOAD","status":"ACTIVE","operator":null,"country":"US","launch_date":"2025-04-28","launch_site_code":"AFETR","launch_vehicle":null,"mission":null,"orbit_class":"UNKNOWN","rcs_meters":null,"size_class":null,"mass_kg":null,"dimensions":null,"purposes":["comms"],"wikipedia_slug":null,"has_3d_model":false,"image_url":null,"decayed_at":null,"tle_current":{"epoch":"2026-05-25T06:24:58.076640Z","epoch_age_seconds":42200,"freshness":"FRESH","line1":"1 63666U 25085C   26145.26733885  .01728701  22411-2  18164-2 0  9997","line2":"2 63666  42.9871 167.9497 0009883 101.4870 258.7122 16.09907267 62396","mean_motion":16.09907267,"eccentricity":0.0009883,"inclination_deg":42.9871,"raan_deg":167.9497,"arg_perigee_deg":101.487,"mean_anomaly_deg":258.7122,"bstar":0.0018164,"rev_number":6239,"period_min":89.446145720144,"perigee_km":240.54997522727,"apogee_km":253.64541412477,"semimajor_km":6625.234694676,"source":"CELESTRAK","updated_at":"2026-05-25T13:38:20.090453Z"}}}